Simultaneous Nadir Overpasses (SNOs) Predictions

Prediction of SNOs between GOES-15 and FY3D Satellite Orbit:

Table of predicted SNOs for the next 14.0 days since TLE Epoch: 10/5/2019
Index Date Time (GOES-15) GOES-15 Lat,Lon FY3D Lat,Lon Distance(km) Time Diff (sec)
1 10/06/2019 10:08:02 0.26,-127.79 0.78,-129.98 250.09 80
2 10/07/2019 09:51:48 0.27,-127.83 -0.28,-125.41 275.28 80
3 10/08/2019 22:10:49 -0.25,-127.82 -0.85,-130.66 323.43 80
4 10/09/2019 21:54:34 -0.26,-127.86 0.15,-126.09 202.05 80
5 10/11/2019 10:13:25 0.23,-127.98 1.00,-131.29 378.45 80
6 10/12/2019 09:57:10 0.24,-128.01 -0.06,-126.73 146.75 80
7 10/13/2019 22:16:11 -0.22,-128.00 -1.13,-131.97 452.68 80
8 10/14/2019 21:59:55 -0.23,-128.03 -0.12,-127.39 72.45 80
9 10/17/2019 10:02:32 0.22,-128.17 0.21,-128.03 15.81 80




NCC Satellite Simultaneous Nadir Overpasses (SNOs) Prediction Service
